Temp
11 10 11 11 11 11 11 11 11 11 12 12 12 12 12 12 13 12 12 11 11 11 10 10 10 10 10 10 10 9 9 8 8 8 8 8 8 8 9 9 9 8 8 8 8
10 11 11 11 11 11 10 11 11 11 11 11 12 12 12 12 13 12 11 10 10 10 10 10 10 10 10 10 10 10 9 8 9 8 8 8 8 8 8 9 9 9 8 8 8
10 10 10 10 10 10 10 10 11 11 11 11 11 12 12 12 13 12 10 10 10 10 10 10 10 9 10 10 9 9 9 9 9 8 8 8 8 8 8 9 8 9 9 8 8
10 10 10 10 10 10 10 10 10 10 11 11 11 11 12 12 12 11 10 10 10 10 10 10 10 10 9 9 8 9 9 9 9 8 7 7 8 8 8 9 9 8 9 9 8
10 10 10 10 10 10 10 10 10 10 11 11 11 11 12 12 11 10 10 9 9 9 10 10 9 9 9 9 9 9 9 9 10 9 8 7 7 8 10 8 8 8 7 7 7
10 10 10 10 10 10 10 10 10 10 10 11 11 11 12 11 10 10 9 9 9 9 10 9 9 9 9 9 8 8 8 9 10 10 9 7 7 9 9 8 8 8 7 7 7
10 10 10 10 10 9 9 9 10 10 10 10 10 11 11 11 9 9 9 9 9 9 9 9 9 9 8 7 7 7 8 8 9 9 8 8 7 9 9 7 9 9 8 7 7
9 9 10 9 9 9 9 9 9 9 10 10 10 11 11 10 9 9 9 8 9 9 9 9 9 9 8 7 7 7 7 6 8 9 7 7 8 10 8 8 10 9 8 8 7
9 9 9 9 9 9 9 9 9 9 9 10 10 10 9 9 8 9 9 8 9 9 9 8 8 8 7 7 7 6 5 5 8 7 6 5 7 11 9 8 8 8 7 7 6
9 8 9 9 9 9 9 9 9 9 10 10 10 10 8 8 8 9 8 9 9 8 8 8 8 7 5 6 4 3 4 4 5 6 4 5 7 8 9 7 7 6 6 6 5
8 8 8 8 8 8 8 9 9 9 9 9 9 9 8 8 8 8 8 8 7 7 7 7 6 6 5 5 4 3 3 4 5 5 3 3 5 7 7 8 7 5 4 4 4
8 8 8 8 8 8 8 7 7 6 8 9 9 8 8 8 8 8 8 7 6 6 5 5 6 5 4 4 3 3 2 3 4 4 1 1 4 7 7 6 5 3 3 3 2
7 7 7 7 7 7 7 7 6 6 7 8 8 8 8 8 8 7 7 6 5 5 3 4 5 4 4 3 3 2 1 1 0 2 3 -0 1 5 8 4 3 2 1 -0 -0
7 7 7 7 7 6 6 6 6 6 7 7 7 7 8 8 7 7 6 5 4 3 3 3 3 2 2 3 1 1 1 0 -0 -0 -1 -0 -3 3 2 0 1 1 -0 -1 -2
6 6 6 6 6 6 5 5 5 5 2 7 7 7 6 6 6 5 4 4 3 3 3 4 2 2 1 1 0 -0 -0 0 -0 -0 -1 -1 -3 -0 -0 -0 -1 -1 -2 -2 -5
6 6 5 5 5 5 5 4 4 5 4 6 6 6 5 5 4 4 4 3 2 3 3 3 2 2 1 0 -0 -1 -1 -1 -1 -2 -5 -1 -3 -2 -2 -2 -3 -3 -3 -4 -6
5 5 5 5 5 5 4 3 3 5 4 5 5 4 3 3 3 3 3 2 2 1 1 1 1 0 -0 -1 -1 -2 -4 -4 -6 -6 -4 -2 -4 -3 -4 -4 -5 -5 -5 -6 -6
4 4 4 4 4 4 3 2 2 5 4 4 3 3 3 3 3 2 1 1 1 -1 -1 -1 -1 -1 -1 -2 -4 -4 -4 -6 -7 -7 -6 -6 -5 -3 -4 -5 -4 -6 -6 -5 -6
4 4 4 3 3 3 2 1 3 3 3 2 1 1 2 2 2 1 1 0 -1 -1 -1 -2 -2 -2 -2 -3 -5 -5 -6 -7 -7 -7 -9 -6 -5 -5 -7 -7 -7 -8 -8 -8 -7
3 4 3 3 3 2 1 2 2 3 2 2 1 1 1 1 0 -0 -0 -1 -2 -2 -2 -4 -4 -4 -4 -4 -5 -6 -8 -8 -9 -12 -13 -7 -8 -8 -8 -8 -10 -9 -9 -10 -11
2 3 3 2 2 1 1 2 2 2 1 1 0 -0 -0 -0 -1 -1 -1 -1 -2 -3 -3 -4 -5 -3 -4 -5 -6 -8 -9 -10 -10 -10 -11 -11 -8 -9 -9 -9 -10 -11 -11 -12 -12
2 1 2 2 1 1 1 1 1 0 -0 -0 -1 -1 -1 -1 -1 -2 -3 -3 -3 -4 -5 -5 -7 -7 -5 -6 -6 -9 -10 -10 -12 -11 -11 -12 -12 -11 -10 -11 -11 -12 -12 -12 -11
1 1 1 0 -0 1 1 0 -1 -1 -1 -2 -1 -1 -1 -1 -2 -3 -4 -3 -4 -5 -6 -7 -8 -9 -6 -6 -8 -9 -9 -10 -12 -13 -12 -13 -11 -11 -11 -12 -12 -13 -12 -12 -13
1 1 0 0 0 -0 -1 -0 -1 -0 -2 -2 -2 -2 -2 -2 -3 -4 -4 -5 -5 -5 -7 -7 -8 -8 -9 -9 -11 -11 -10 -9 -12 -13 -13 -13 -12 -12 -12 -12 -13 -13 -13 -13 -13
0 1 1 1 1 1 -1 -1 -2 -2 -4 -3 -3 -3 -3 -3 -4 -4 -5 -6 -6 -6 -7 -8 -9 -10 -11 -10 -11 -12 -12 -12 -13 -13 -13 -13 -13 -12 -13 -13 -14 -14 -14 -14 -14
1 2 2 1 1 -2 -1 -1 -2 -4 -5 -4 -5 -4 -4 -4 -4 -5 -6 -6 -6 -7 -8 -10 -10 -11 -11 -9 -12 -13 -12 -12 -12 -12 -12 -12 -13 -13 -13 -14 -14 -15 -15 -14 -14
2 2 1 0 -1 -2 -2 -2 -2 -5 -5 -5 -5 -5 -4 -4 -5 -6 -6 -7 -8 -8 -9 -11 -11 -12 -12 -11 -13 -12 -11 -12 -12 -12 -13 -14 -14 -14 -14 -15 -15 -16 -14 -15 -15
Height
3195 3194 3193 3192 3190 3188 3186 3184 3181 3177 3173 3169 3165 3160 3155 3151 3147 3143 3142 3142 3139 3138 3137 3135 3134 3133 3130 3127 3126 3124 3123 3122 3120 3117 3114 3112 3108 3107 3105 3102 3098 3095 3092 3089 3087
3196 3194 3193 3192 3190 3188 3185 3183 3181 3177 3173 3168 3164 3158 3153 3149 3146 3141 3140 3139 3137 3136 3135 3133 3131 3130 3128 3126 3124 3123 3121 3117 3115 3114 3111 3110 3107 3103 3101 3098 3097 3093 3089 3085 3083
3195 3194 3192 3191 3190 3188 3185 3182 3179 3176 3172 3167 3163 3158 3153 3149 3145 3141 3139 3137 3135 3134 3133 3131 3128 3127 3125 3124 3123 3120 3118 3116 3114 3111 3107 3104 3103 3101 3096 3095 3093 3090 3088 3084 3081
3194 3192 3191 3190 3189 3187 3184 3181 3178 3174 3170 3165 3162 3157 3153 3148 3146 3140 3137 3136 3135 3133 3131 3129 3128 3125 3123 3122 3119 3118 3116 3113 3109 3104 3103 3101 3097 3093 3092 3090 3087 3085 3083 3081 3078
3193 3191 3190 3188 3187 3185 3182 3179 3176 3172 3168 3164 3160 3155 3151 3146 3142 3138 3137 3135 3134 3132 3130 3127 3125 3123 3122 3120 3116 3115 3114 3112 3107 3102 3097 3096 3095 3089 3085 3084 3081 3081 3079 3074 3072
3191 3190 3188 3186 3184 3182 3180 3177 3174 3170 3166 3162 3158 3153 3148 3145 3139 3138 3137 3135 3133 3131 3129 3127 3124 3122 3119 3117 3115 3111 3109 3107 3105 3101 3094 3084 3086 3086 3084 3078 3078 3075 3072 3071 3069
3189 3187 3186 3183 3181 3180 3178 3174 3171 3167 3163 3159 3156 3151 3146 3144 3140 3138 3136 3134 3132 3130 3129 3126 3123 3120 3117 3115 3112 3108 3104 3101 3101 3096 3091 3080 3074 3078 3078 3076 3070 3068 3066 3065 3063
3186 3184 3182 3180 3178 3176 3174 3172 3169 3164 3159 3156 3152 3148 3144 3140 3138 3137 3134 3132 3129 3127 3126 3124 3120 3117 3114 3112 3108 3105 3101 3095 3094 3090 3086 3084 3059 3071 3071 3069 3064 3062 3061 3057 3053
3183 3180 3179 3177 3174 3172 3170 3167 3165 3162 3157 3153 3149 3145 3140 3137 3136 3135 3132 3130 3127 3124 3122 3120 3117 3114 3110 3107 3107 3104 3097 3093 3084 3088 3081 3080 3059 3061 3066 3061 3056 3056 3053 3047 3042
3179 3177 3174 3173 3170 3168 3165 3162 3160 3160 3156 3149 3143 3142 3137 3135 3133 3131 3128 3126 3126 3122 3120 3117 3113 3110 3108 3106 3105 3102 3096 3089 3087 3084 3076 3073 3058 3055 3058 3054 3051 3050 3046 3039 3034
3175 3173 3170 3168 3166 3162 3160 3157 3155 3151 3151 3144 3139 3134 3132 3132 3131 3128 3126 3124 3124 3120 3114 3113 3109 3106 3106 3105 3103 3101 3097 3090 3083 3085 3075 3071 3053 3045 3047 3045 3044 3044 3040 3030 3024
3171 3168 3166 3164 3161 3157 3154 3149 3147 3143 3136 3137 3134 3131 3130 3129 3128 3125 3124 3122 3118 3114 3110 3110 3106 3104 3103 3103 3099 3099 3092 3087 3077 3076 3074 3068 3046 3038 3040 3040 3039 3040 3027 3021 3015
3166 3165 3163 3159 3157 3155 3151 3147 3143 3138 3137 3133 3131 3129 3129 3129 3125 3123 3120 3115 3111 3109 3106 3105 3103 3100 3098 3096 3093 3092 3088 3083 3080 3066 3057 3056 3041 3024 3026 3032 3032 3032 3024 3014 3006
3162 3160 3158 3156 3155 3150 3147 3143 3139 3134 3130 3130 3128 3127 3128 3126 3123 3119 3115 3115 3108 3105 3101 3098 3096 3096 3095 3092 3089 3084 3083 3078 3074 3067 3057 3052 3034 3001 3022 3023 3024 3019 3012 3004 2994
3156 3155 3154 3151 3149 3146 3144 3139 3136 3133 3130 3127 3124 3123 3123 3124 3119 3115 3111 3106 3103 3102 3100 3097 3091 3090 3088 3085 3083 3082 3078 3074 3068 3061 3050 3033 3032 3012 3022 3018 3016 3010 3004 2994 2991
3150 3149 3147 3147 3145 3142 3139 3136 3133 3135 3125 3122 3121 3119 3119 3117 3112 3108 3107 3102 3098 3093 3092 3088 3087 3084 3082 3079 3079 3077 3074 3066 3059 3054 3042 3031 3032 3006 3015 3014 3008 3003 2995 2988 2985
3143 3143 3142 3141 3140 3137 3134 3134 3133 3129 3123 3119 3117 3114 3110 3107 3103 3100 3099 3096 3096 3090 3085 3081 3080 3077 3077 3075 3076 3073 3068 3063 3053 3052 3037 3028 3021 3009 3010 3005 3002 2997 2991 2987 2976
3135 3135 3135 3134 3134 3132 3130 3131 3129 3120 3118 3114 3111 3107 3105 3101 3096 3094 3095 3093 3089 3087 3083 3075 3068 3074 3072 3072 3069 3066 3066 3070 3066 3052 3028 3027 3008 3003 3003 3001 2997 2990 2984 2977 2968
3128 3127 3126 3127 3127 3126 3125 3122 3118 3115 3112 3108 3105 3099 3095 3094 3096 3092 3088 3088 3085 3085 3087 3078 3067 3070 3069 3067 3067 3063 3062 3061 3055 3044 3043 3013 2995 2999 2999 2995 2992 2981 2974 2969 2962
3119 3118 3118 3119 3118 3118 3116 3111 3110 3109 3106 3101 3099 3098 3092 3089 3089 3089 3087 3085 3082 3081 3081 3078 3066 3060 3062 3063 3061 3060 3054 3054 3051 3048 3040 3012 2993 2992 2989 2984 2981 2975 2969 2961 2954
3111 3109 3108 3108 3109 3107 3103 3101 3100 3099 3099 3096 3090 3090 3087 3085 3084 3083 3083 3081 3079 3077 3077 3076 3070 3059 3057 3057 3050 3051 3051 3053 3050 3044 3032 3019 2983 2990 2986 2980 2974 2967 2962 2952 2945
3102 3100 3098 3098 3100 3094 3092 3091 3091 3089 3089 3087 3083 3081 3080 3077 3077 3077 3076 3074 3073 3073 3070 3068 3064 3052 3046 3047 3045 3045 3045 3047 3047 3034 3025 3019 2978 2988 2983 2976 2968 2960 2952 2944 2935
3092 3091 3089 3089 3085 3083 3081 3081 3080 3078 3079 3077 3075 3072 3072 3072 3073 3067 3066 3066 3065 3063 3063 3061 3055 3051 3039 3046 3041 3038 3036 3035 3035 3028 3016 3009 2979 2982 2972 2966 2960 2952 2943 2932 2922
3086 3079 3078 3075 3071 3073 3072 3069 3067 3066 3068 3069 3066 3067 3066 3065 3063 3061 3060 3059 3058 3057 3055 3054 3050 3050 3048 3044 3041 3033 3027 3025 3027 3021 3007 2993 2973 2972 2964 2957 2949 2940 2930 2917 2909
3071 3065 3062 3064 3059 3060 3057 3055 3058 3056 3058 3061 3057 3057 3058 3055 3053 3052 3052 3053 3053 3052 3047 3047 3040 3038 3036 3034 3031 3028 3020 3015 3016 3011 3004 2983 2975 2965 2956 2947 2941 2931 2918 2905 2893
3056 3052 3050 3049 3048 3049 3044 3042 3044 3047 3049 3046 3051 3053 3051 3050 3050 3048 3046 3047 3048 3045 3042 3039 3035 3033 3026 3026 3021 3014 3012 3009 3006 3002 2992 2980 2966 2960 2947 2933 2927 2917 2902 2890 2876
3040 3039 3038 3035 3032 3032 3031 3034 3034 3036 3034 3037 3041 3043 3043 3045 3043 3044 3041 3040 3040 3041 3037 3034 3032 3030 3018 3019 3011 3004 3004 3001 2995 2993 2987 2972 2959 2950 2940 2921 2912 2900 2883 2874 2866
Wind_Speed
8 11 14 16 18 19 19 21 24 26 27 28 29 30 32 31 27 23 17 14 17 16 16 16 15 14 16 17 16 15 11 12 14 17 21 20 21 19 20 21 18 20 22 24 23
9 11 13 15 16 17 19 22 24 26 26 28 29 32 35 30 28 24 14 17 16 15 14 15 15 13 14 15 13 16 15 17 14 16 20 20 20 21 22 18 12 19 21 26 24
7 9 12 15 16 17 20 23 24 26 27 29 30 33 33 32 34 17 17 14 15 14 17 18 17 17 12 10 14 18 19 18 16 18 18 21 22 21 25 17 14 17 18 22 25
8 10 13 15 16 18 21 25 26 27 29 31 32 34 32 33 20 14 11 11 14 15 15 16 16 15 13 15 19 21 13 19 25 28 22 27 29 32 29 19 21 17 22 28 27
9 11 14 16 17 20 22 25 26 29 30 31 34 36 34 30 21 11 9 13 16 19 19 18 13 14 15 19 23 18 22 19 22 28 29 32 32 37 32 35 15 30 19 40 34
11 13 15 17 19 21 23 24 25 27 29 32 34 35 35 23 13 8 11 14 19 22 21 18 17 18 20 24 22 23 24 23 24 25 35 42 37 38 34 20 35 36 37 38 37
13 15 16 18 21 23 24 24 25 28 31 33 36 31 37 15 8 8 10 14 18 20 24 21 21 23 26 22 21 26 27 25 21 29 33 40 44 43 40 45 42 42 39 43 39
15 17 18 20 23 25 26 26 26 28 32 34 37 32 23 5 1 9 17 25 26 24 30 26 24 22 20 23 25 24 23 32 33 31 35 33 55 43 41 43 37 40 43 47 44
18 18 20 22 24 26 28 28 28 29 32 34 33 35 10 12 8 12 19 27 29 31 32 29 25 20 22 22 21 20 31 36 40 39 38 37 51 44 40 41 45 46 46 46 47
19 20 23 25 26 28 30 31 30 29 34 39 31 24 14 13 11 14 19 26 32 33 32 27 23 26 15 12 16 26 32 37 40 40 40 40 50 48 44 46 50 51 46 47 48
20 21 24 26 28 30 32 33 35 37 35 38 28 13 13 11 12 15 20 26 36 28 26 23 26 14 7 10 22 23 31 37 35 36 38 39 52 56 55 55 53 52 52 46 45
20 22 24 27 29 31 34 35 36 39 46 24 21 10 10 13 17 20 25 28 39 28 21 20 13 12 11 19 24 23 32 29 40 39 39 44 61 62 59 56 52 50 47 46 46
21 24 26 27 29 30 33 35 37 40 44 18 8 7 11 14 21 23 28 41 39 24 21 26 14 17 16 25 24 30 24 27 28 45 54 22 51 71 63 52 45 37 39 31 35
24 25 26 29 30 31 32 34 36 39 28 13 6 8 11 18 21 24 35 40 27 21 29 15 14 16 25 29 28 19 18 24 30 38 38 52 22 69 52 41 37 32 26 36 41
26 27 28 29 31 31 32 33 34 38 7 13 10 14 16 18 29 32 36 39 22 26 28 26 26 22 30 20 16 20 23 31 39 54 41 48 19 27 42 34 32 33 40 37 41
29 28 29 29 32 32 32 32 33 16 7 8 17 21 26 30 34 34 40 26 23 29 29 11 24 18 17 16 17 17 31 47 29 33 10 17 17 35 40 32 36 34 36 42 52
30 31 30 29 31 32 31 31 18 6 10 9 28 37 38 37 37 37 28 20 28 24 19 32 8 14 9 16 16 33 17 11 6 4 13 28 39 38 20 25 40 50 50 55 57
33 32 32 30 32 32 30 28 11 16 23 39 34 37 35 35 34 21 14 26 29 17 20 15 17 12 10 29 29 32 13 5 6 11 29 47 14 21 27 43 55 50 53 57 55
36 35 34 31 32 33 31 24 20 26 25 35 38 39 31 19 15 21 20 25 13 9 10 16 20 24 38 25 28 12 21 26 22 31 20 15 41 47 46 26 50 41 40 53 63
38 39 38 35 36 34 32 36 32 38 38 39 37 21 28 26 19 16 16 13 15 14 18 17 32 24 15 34 15 29 14 9 6 4 6 24 52 27 42 44 36 49 60 64 61
39 41 42 38 35 32 35 39 41 42 36 37 33 30 31 30 28 25 14 21 22 20 19 25 22 33 45 38 21 18 2 12 19 14 5 9 23 36 37 33 59 61 63 53 49
42 41 38 36 36 41 43 42 45 42 40 31 32 33 33 31 29 27 15 20 18 25 26 23 15 28 43 16 8 4 24 30 8 17 30 34 43 30 45 58 63 60 56 59 53
43 44 46 45 46 47 47 45 41 44 44 29 27 27 26 29 22 16 16 22 21 25 14 24 12 15 19 9 5 37 40 39 29 22 29 20 27 51 59 63 61 60 62 66 66
42 47 48 50 52 50 48 49 48 43 32 28 33 33 34 36 30 20 22 22 27 25 26 24 19 21 17 28 32 36 41 39 30 21 33 44 56 57 63 60 61 65 69 71 70
50 56 56 46 49 42 41 44 35 30 32 32 36 35 32 34 31 29 29 25 21 29 23 22 27 30 29 32 30 28 34 38 34 34 38 50 51 60 59 64 64 67 72 75 81
57 59 62 62 62 55 55 53 47 34 33 35 37 30 30 34 32 31 27 24 25 23 22 25 25 31 32 33 24 30 36 16 26 28 40 46 54 59 62 71 72 75 82 85 67
61 69 65 64 61 57 57 50 44 33 40 30 23 28 33 32 30 26 26 26 23 23 26 28 18 19 16 27 38 14 9 33 26 29 38 46 60 58 61 80 82 85 86 60 66
Wind_Direction
40 31 27 24 19 15 7 2 1 0 355 351 352 351 348 346 343 336 328 316 323 320 319 325 330 333 331 331 334 334 333 330 332 333 327 328 323 325 317 326 330 324 324 325 330
26 23 18 16 13 7 0 360 360 356 352 352 353 351 352 353 344 333 324 319 322 323 321 324 328 335 332 329 339 339 336 327 332 329 326 323 316 314 311 316 326 319 328 329 330
10 9 7 7 4 360 355 356 357 354 351 352 354 354 352 348 340 340 323 327 324 328 330 329 334 339 343 340 340 334 334 324 335 327 326 323 314 312 312 328 312 310 335 328 330
352 357 356 355 354 354 351 352 352 349 350 350 351 353 350 344 347 348 348 358 353 354 351 350 347 340 348 345 336 330 337 325 324 323 318 326 319 315 306 314 296 317 300 330 321
337 343 344 345 346 347 346 345 347 347 347 348 352 352 344 341 344 351 15 42 22 3 355 347 347 342 344 332 324 323 322 315 314 315 311 313 315 310 320 322 268 312 293 319 321
325 332 335 337 339 339 339 340 343 343 344 349 348 346 348 332 344 67 52 22 5 0 356 345 334 330 325 322 319 316 313 312 315 309 310 313 311 312 325 316 307 322 322 320 326
318 320 325 334 332 332 334 337 340 339 341 344 344 345 345 341 95 48 11 355 346 356 352 336 324 322 319 320 316 311 309 308 309 313 315 316 306 312 320 315 319 323 325 326 330
310 313 325 329 328 330 333 333 336 338 339 337 339 339 336 276 241 3 0 352 343 333 339 336 329 322 319 313 311 316 317 317 321 322 322 321 304 317 323 321 322 322 326 328 325
305 315 321 325 325 326 329 329 334 341 337 339 340 340 301 251 265 323 338 344 342 329 327 327 326 326 317 311 318 326 318 318 318 327 323 319 306 320 321 321 319 322 326 329 328
305 314 320 323 321 322 325 328 330 335 337 339 339 333 287 255 274 296 322 336 332 324 319 319 318 321 306 320 336 320 317 312 311 325 318 312 303 308 318 316 320 323 327 326 328
304 313 316 318 317 320 323 324 326 336 347 347 342 314 268 261 270 298 317 317 322 324 316 316 321 314 296 305 313 307 309 307 315 318 312 311 304 309 318 320 323 326 328 318 315
305 309 311 312 315 321 325 331 336 338 341 347 348 319 270 260 274 288 309 314 326 327 321 319 334 307 266 299 310 307 307 303 309 317 309 310 306 311 313 316 323 325 316 314 313
301 302 306 309 314 318 323 330 334 335 338 345 343 315 273 267 280 283 308 319 327 327 325 321 319 300 274 303 308 304 296 307 299 315 312 323 304 308 314 314 317 316 309 305 306
295 298 302 306 311 317 324 328 330 333 335 334 303 281 293 291 282 285 303 320 318 320 321 321 317 301 299 306 308 300 287 287 293 310 304 307 289 298 314 317 325 312 307 313 321
292 296 301 306 310 317 322 324 327 333 340 313 301 303 303 280 292 294 303 315 301 310 313 312 303 311 310 313 308 297 282 296 301 303 301 295 269 289 317 320 311 307 309 312 333
290 293 296 304 307 311 317 321 326 323 264 294 304 314 302 297 293 289 303 300 303 310 316 310 310 315 305 295 295 290 304 307 314 300 278 302 330 299 314 320 317 317 310 309 320
285 289 292 299 303 306 312 319 323 256 301 291 307 305 300 295 292 296 302 292 317 324 314 317 325 329 268 293 291 315 345 326 328 333 271 301 310 294 314 330 330 318 315 319 319
280 283 288 296 298 302 309 312 274 287 290 300 303 303 294 294 294 292 278 307 313 305 308 322 313 310 297 312 314 331 332 279 303 299 291 302 260 288 302 310 307 311 308 301 313
279 282 285 291 293 298 300 286 281 294 299 301 304 298 288 281 265 290 301 303 287 287 301 316 299 299 300 312 328 333 318 309 276 277 276 269 285 297 310 313 315 312 316 317 309
278 281 283 288 291 292 288 283 281 294 300 302 294 278 275 281 278 289 306 290 290 295 303 308 303 308 318 315 311 321 319 340 324 298 277 288 297 303 318 321 319 316 316 318 319
278 281 285 288 290 286 278 286 294 295 294 299 285 271 273 279 283 289 280 288 284 288 298 302 293 296 307 320 326 323 18 348 314 281 278 301 290 314 317 313 315 319 317 323 318
274 278 282 283 283 282 283 288 292 288 291 285 271 268 270 277 283 286 269 278 281 296 300 308 294 287 308 340 290 145 330 322 303 289 287 279 275 307 310 315 320 316 321 319 318
275 278 280 281 275 279 282 277 278 278 286 269 259 259 269 279 279 272 270 280 288 294 295 307 291 302 307 322 277 308 315 315 302 285 275 276 282 307 316 317 319 318 319 319 320
270 273 275 278 276 275 272 271 270 281 270 254 256 262 274 276 272 268 272 281 289 294 301 303 285 279 265 284 293 299 311 315 311 293 289 285 295 308 314 317 319 320 319 319 315
269 268 269 266 272 273 265 262 266 264 256 251 253 254 265 267 270 270 274 276 282 301 301 306 297 299 298 304 305 302 300 307 291 293 283 296 299 309 316 315 317 317 316 313 314
257 266 276 270 271 263 260 259 269 256 244 243 257 271 267 267 272 278 278 283 293 299 298 295 294 304 304 318 312 299 303 310 314 304 302 308 305 320 321 319 318 317 316 317 321
266 262 264 261 262 257 260 268 274 247 248 259 264 264 266 272 271 273 279 290 295 294 288 288 296 308 296 318 314 306 349 318 311 313 312 309 313 321 318 317 319 318 323 323 319